Погода в Сан Фернандо де Апуре

Венесуэла     7°53′46″N   67°28′21″W
темп.,
°C
ветер,
м/с
пор.,
м/с
влажн.,
%
обл.,
%
осадки,
мм/ч
давл.,
гПа
погр.,
м
26 февраля, пт
пт2623:00+28св6136082 0.0 1010648
02:00+26св4116691 0.0 10101053
05:00+24св3107198 0.0 10101029
08:00+26всв5106699 0.0 10121040
11:00+32всв594487 0.0 10121811
14:00+35всв573593 0.0 10082288
17:00+34св5838100 0.0 10052164
20:00+30всв3104683 0.0 1008395
27 февраля, сб
сб2723:00+27св51259100 0.0 1010694
02:00+25св41168100 0.0 1010715
05:00+23св3107732 0.0 1010801
08:00+25всв5106938 0.0 1012970
11:00+32всв59441 0.0 10121648
14:00+36всв58321 0.0 10082348
17:00+36всв57300 0.0 10052669
20:00+31вюв3103923 0.0 1007497
28 февраля, вс
вс2823:00+26св5126188 0.0 1010728
02:00+25св5126691 0.0 1011824
05:00+24св41169100 0.0 1010890
08:00+25св5106578 0.0 1013942
11:00+31всв69430 0.0 10121665
14:00+35всв69335 0.0 10082423
17:00+34всв4835100 0.0 10052459
20:00+29всв264492 0.0 1007192
1 марта, пн
пн123:00+25св4125133 0.0 1009682
02:00+23св3116718 0.0 1010831
05:00+22св311754 0.0 1009706
08:00+24всв510673 0.0 1011994
11:00+31всв583828 0.0 10111669
14:00+35св472650 0.0 10072591
17:00+35св472491 0.0 10042808
20:00+29св3103152 0.0 1006342
2 марта, вт
вт223:00+25св412570 0.0 1009701
02:00+24св513645 0.0 1009680
05:00+23св4126730 0.0 1010747
08:00+24всв5116365 0.0 1012953
11:00+31всв583924 0.0 10121627
14:00+36св462312 0.0 10082710
17:00+36всв362021 0.0 10052843
20:00+28всв253061 0.0 100891